This is the latest recevied weather packets stored in our database for station/object EA4HRG-10. If no packets are shown the sender has not sent any weather packets the latest 10 day(s).
| Time | Temp. | Humidity | Pressure | Rain* | Wind** | Luminosity | Snow |
|---|---|---|---|---|---|---|---|
| 1788510340 | 21.11° C | 36% | 1022.6 hPa | - | - | - | - |
| 1788509440 | 18.33° C | 41% | 1023.8 hPa | - | - | - | - |
| 1788508540 | 17.22° C | 44% | 1024.2 hPa | - | - | - | - |
| 1788507640 | 15.56° C | 48% | 1025 hPa | - | - | - | - |
| 1788506740 | 14.44° C | 51% | 1025.5 hPa | - | - | - | - |
| 1788505840 | 13.33° C | 53% | 1026 hPa | - | - | - | - |
| 1788504940 | 12.78° C | 55% | 1026.3 hPa | - | - | - | - |
| 1788504040 | 11.67° C | 56% | 1026.7 hPa | - | - | - | - |
| 1788503140 | 11.11° C | 57% | 1026.8 hPa | - | - | - | - |
| 1788502240 | 11.11° C | 58% | 1026.6 hPa | - | - | - | - |
| 1788501340 | 11.11° C | 59% | 1026.7 hPa | - | - | - | - |
| 1788500440 | 11.11° C | 57% | 1026.4 hPa | - | - | - | - |
| 1788499540 | 11.11° C | 55% | 1026.4 hPa | - | - | - | - |
| 1788498640 | 11.67° C | 55% | 1026.4 hPa | - | - | - | - |
| 1788497740 | 11.67° C | 52% | 1026.2 hPa | - | - | - | - |
| 1788496840 | 11.67° C | 54% | 1026.1 hPa | - | - | - | - |
| 1788495940 | 11.67° C | 51% | 1026 hPa | - | - | - | - |
| 1788495040 | 12.22° C | 50% | 1025.8 hPa | - | - | - | - |
| 1788494140 | 12.22° C | 52% | 1025.8 hPa | - | - | - | - |
| 1788493239 | 12.78° C | 51% | 1025.7 hPa | - | - | - | - |
| 1788492340 | 12.78° C | 50% | 1025.6 hPa | - | - | - | - |
| 1788491440 | 12.78° C | 50% | 1025.5 hPa | - | - | - | - |
| 1788490540 | 13.33° C | 49% | 1025.5 hPa | - | - | - | - |
| 1788489639 | 13.33° C | 48% | 1025.5 hPa | - | - | - | - |
| 1788488740 | 13.33° C | 48% | 1025.4 hPa | - | - | - | - |
* Rain since midnight (hover to see other rain measurements)
** Current wind speed in m/s (hover to see current wind gust speed)